Location: Betzi
(47.2343°N, 9.5260°E)
Time: 23:41:00
(UTC+00:00)

Cosmos 407 Rocket - Pass Details

Date: 27 May 2022
Orbit: 743 x 786 km, 74.0° (Epoch: 26 June)

Event Time Altitude Azimuth Distance (km) Brightness Sun altitude
Rises 02:06:46 0° 338° (NNW) 3,283 7.2 -11.8°
Reaches altitude 10° 02:09:11 10° 340° (NNW) 2,347 6.4 -11.5°
Maximum altitude 02:14:32 79° 68° (ENE) 796 3.7 -10.9°
Drops below altitude 10° 02:19:47 10° 155° (SSE) 2,305 5.8 -10.3°
Sets 02:22:08 0° 156° (SSE) 3,220 6.5 -10.1°
